Back to catalog

STARLINK-35588

AliveCommunicationsVLEO
NORAD 66424·PAYLOAD·🇺🇸 United States

Launched Nov 11, 2025 from Cape Canaveral Space Force Station

Loading…

Next Passes (next 24 hours)

TLE

FreshSource: CelesTrak SupGP

Epoch: Sep 14, 2026, 14:50 UTC

1 66424C 25259C   26257.61854167  .00036383  00000+0  13179-2 0  2577
2 66424  43.0025 287.4874 0001664 280.8932 104.0585 15.27556181    12

Track STARLINK-35588 in real time with AllMySat

Download on the App Store